Tracking 20066 objects as of 7-Dec-2019
HD Live streaming from Space Station
objects crossing your sky now

COSMOS 2251 DEB

Track COSMOS 2251 DEB now!
10-day predictions


NORAD ID: 36529
Int'l Code: 1993-036BCP
Perigee: 736.9 km
Apogee: 983.8 km
Inclination: 74.0 °
Period: 102.0 minutes
Semi major axis: 7231 km
RCS: 0.003 m2 (small)
Launch date: June 16, 1993
Source: Commonwealth of Independent States (former USSR) (CIS)
Launch site: PLESETSK MISSILE AND SPACE COMPLEX (PKMTR)

Note: This is SATELLITE DEBRIS
aabbcc
Your satellite tracking list
Your tracking list is empty




NASA's NSSDC Master Catalog

Two Line Element Set (TLE):
1 36529U 93036BCP 19259.08158745  .00001494  00000-0  72550-3 0  9990
2 36529  74.0458 145.0553 0170754  45.4519  24.8583 14.11798889511418
Source of the keplerian elements: AFSPC